Regional Weather Roundup
Issued by NWS

Home | Current Version | Previous Version | Graphics & Text | Print | Product List | Glossary Off
Versions: 1 2 3 4 5 6 7 8 9 10 11 12 13 14 15 16 17 18 19 20 21 22 23 24 25 26 27 28 29 30 31 32 33 34 35 36 37 38 39 40 41 42 43 44 45 46 47 48 49 50

000
ASUS44 KMEG 230310
RWRTN
TENNESSEE HOURLY STATE WEATHER ROUNDUP
NATIONAL WEATHER SERVICE MEMPHIS TN
900 PM CST WED NOV 22 2017

TNZ002-004-019-021-049-052-054-088>092-230400-
WEST TENNESSEE

CITY           SKY/WX    TMP DP  RH WIND       PRES   REMARKS
MEMPHIS INTL   CLEAR     37  26  64 N8        30.27R WCI  31
NWS MEMPHIS      N/A     35 N/A N/A MISG        N/A
JACKSON        CLEAR     32  24  72 N5        30.27R WCI  27
DYERSBURG      CLEAR     32  26  78 CALM      30.30R
SOMERVILLE     CLEAR     36  25  64 N5        30.25R WCI  32
COVINGTON      CLEAR     30  25  80 NW6       30.29R WCI  24
UNION CITY     CLEAR     32  23  69 CALM      30.28S
BOLIVAR        PTCLDY    30  25  80 NW3       30.25S
PARIS          CLEAR     32  21  64 N5        30.26R WCI  27
HUNTINGDON     CLEAR     36  23  60 N5        30.26R WCI  32
LEXINGTON      CLEAR     36  23  60 N5        30.25S WCI  32
SELMER         CLEAR     34  25  69 N3        30.23S
SAVANNAH       PTCLDY    34  27  75 CALM      30.23F HAZE
$$

TNZ008-025-027-028-033-062-065-066-230400-
NORTH MIDDLE TENNESSEE

CITY           SKY/WX    TMP DP  RH WIND       PRES   REMARKS
NASHVILLE      CLEAR     38  24  57 N5        30.24F WCI  34
PORTLAND       CLEAR     32  23  69 CALM      30.23F
CLARKSVILLE    CLEAR     31  21  66 N8        30.27R WCI  23
SMYRNA         CLEAR     34  24  67 N7        30.25F WCI  28
COOKEVILLE     CLEAR     30  27  86 CALM      30.20S
GALLATIN       CLEAR     34  25  69 CALM      30.26F
CROSSVILLE     CLEAR     33  23  66 NE6       30.17F WCI  28
$$

TNZ061-075-076-078-094-096-097-230400-
SOUTH MIDDLE TENNESSEE

CITY           SKY/WX    TMP DP  RH WIND       PRES   REMARKS
FAYETTEVILLE   CLEAR     37  27  65 N7        30.19S WCI  32
TULLAHOMA      CLEAR     34  25  69 N7        30.19S WCI  28
WINCHESTER     CLEAR     36  27  69 CALM      30.20R
MCMINNVILLE    PTCLDY    30  27  86 CALM      30.20S
COLUMBIA       PTCLDY    32  23  69 CALM      30.21F
SHELBYVILLE    CLEAR     32  27  80 N6        30.21F WCI  26
$$

TNZ017-018-042-046-047-230400-
NORTHEAST TENNESSEE

CITY           SKY/WX    TMP DP  RH WIND       PRES   REMARKS
TRI CITIES     CLEAR     33  26  75 CALM      30.18S
ELIZABETHTON   CLEAR     30  27  86 CALM      30.18R
$$

TNZ012-013-036-069-073-074-230400-
CENTRAL EAST TENNESSEE

CITY           SKY/WX    TMP DP  RH WIND       PRES   REMARKS
KNOXVILLE      CLEAR     39  30  70 N7        30.16S WCI  34
OAK RIDGE      CLEAR     39  26  59 CALM      30.19R
DOWNTOWN KNOXV CLEAR     37  32  81 CALM      30.19R
GATLINBURG     MOCLDY    34  30  86 CALM      30.17S
MORRISTOWN     PTCLDY    37  27  65 CALM      30.17R
JACKSBORO      CLEAR     36  25  64 CALM      30.22F
$$

TNZ083-085-099-230400-
SOUTHEAST TENNESSEE

CITY           SKY/WX    TMP DP  RH WIND       PRES   REMARKS
CHATTANOOGA    CLEAR     41  27  57 VRB6      30.17R
DAYTON         PTCLDY    34  30  86 CALM      30.17S
$$

SKY/WX REPORTED AS FAIR MEANS FEW OR NO CLOUDS BELOW
12 THOUSAND FEET.





USA.gov is the U.S. government's official web portal to all federal, state and local government web resources and services.